Weather History for K3I2 - May, 2013

Change the Weather History Date:

Monday, May 27, 2013

  Actual Average (KHTS) Record (KHTS)
Temperature  
Mean Temperature 60 °F 67 °F  
Max Temperature 77 °F 78 °F 93 °F (1918)
Min Temperature 44 °F 56 °F 36 °F (1907)
Degree Days  
Heating Degree Days 4 2  
Month to date heating degree days 106  
Since 1 July heating degree days 4494  
Cooling Degree Days 0 4  
Month to date cooling degree days 64  
Year to date cooling degree days 96  
Growing Degree Days 10 (Base 50)    
Moisture  
Dew Point 50 °F    
Average Humidity 74    
Maximum Humidity 94    
Minimum Humidity 41    
Precipitation  
Precipitation 0.00 in 0.17 in 2.12 in (1917)
Month to date precipitation 4.05  
Year to date precipitation 17.43  
Snow  
Snow 0.00 in - - ()
Month to date snowfall  
Since 1 September snowfall  
Snow Depth -    
Sea Level Pressure  
Sea Level Pressure 30.18 in    
Wind  
Wind Speed 2 mph (East)    
Max Wind Speed 9 mph    
Max Gust Speed -    
Visibility 10 miles    
Events Rain    
T = Trace of Precipitation, MM = Missing Value Source: NWS Daily Summary

Daily Weather History Graph

Daily Weather History Graph

Search for Another Location

Airport or City:

Trip Planner

Search our weather history database for the weather conditions in past years. The results will help you decide how hot, cold, wet, or windy it might be!

Date:

Astronomy

May. 27, 2013 Rise Set
Actual Time 6:07 AM EDT 8:44 PM EDT
Civil Twilight 5:36 AM EDT 9:15 PM EDT
Nautical Twilight 4:57 AM EDT 9:54 PM EDT
Astronomical Twilight 4:13 AM EDT 10:38 PM EDT
Moon 11:23 PM EDT (5/27) 8:42 AM EDT (5/27)
Length of Visible Light 15h 39m
Length of Day
14h 37m
Waning Gibbous, 91% of the Moon is Illuminated
May 27
Waning Gibbous
May 31
Last Quarter
Jun 8
New
Jun 16
First Quarter
Jun 23
Full

Hourly Weather History & Observations

Time (EDT) Temp. Dew Point Humidity Pressure Visibility Wind Dir Wind Speed Gust Speed Precip Events Conditions
12:15 AM 48.2 °F 44.6 °F 87% 30.26 in 10.0 mi Calm Calm - N/A   Clear
12:35 AM 48.2 °F 44.6 °F 87% 30.26 in 10.0 mi East 3.5 mph - N/A   Clear
12:55 AM 46.4 °F 44.6 °F 93% 30.27 in 10.0 mi Calm Calm - N/A   Clear
1:15 AM 46.4 °F 44.6 °F 93% 30.27 in 10.0 mi Calm Calm - N/A   Clear
1:35 AM 46.4 °F 42.8 °F 87% 30.25 in 10.0 mi Calm Calm - N/A   Clear
1:55 AM 46.4 °F 42.8 °F 87% 30.25 in 10.0 mi Calm Calm - N/A   Clear
2:15 AM 44.6 °F 42.8 °F 93% 30.26 in 10.0 mi Calm Calm - N/A   Clear
2:35 AM 44.6 °F 42.8 °F 93% 30.26 in 10.0 mi Calm Calm - N/A   Clear
2:55 AM 44.6 °F 42.8 °F 93% 30.25 in 10.0 mi Calm Calm - N/A   Clear
3:15 AM 44.6 °F 42.8 °F 93% 30.25 in 10.0 mi Calm Calm - N/A   Clear
3:35 AM 44.6 °F 42.8 °F 93% 30.25 in 10.0 mi Calm Calm - N/A   Clear
3:55 AM 44.6 °F 42.8 °F 93% 30.24 in 10.0 mi Calm Calm - N/A   Clear
4:15 AM 46.4 °F 42.8 °F 87% 30.24 in 10.0 mi Calm Calm - N/A   Clear
4:35 AM 46.4 °F 42.8 °F 87% 30.23 in 10.0 mi Calm Calm - N/A   Clear
4:55 AM 46.4 °F 44.6 °F 93% 30.24 in 10.0 mi Calm Calm - N/A   Clear
5:15 AM 46.4 °F 44.6 °F 93% 30.24 in 10.0 mi Calm Calm - N/A   Clear
5:35 AM 46.4 °F 44.6 °F 93% 30.24 in 10.0 mi Calm Calm - N/A   Clear
5:55 AM 48.2 °F 44.6 °F 87% 30.24 in 10.0 mi ENE 3.5 mph - N/A   Clear
6:15 AM 48.2 °F 44.6 °F 87% 30.25 in 10.0 mi Calm Calm - N/A   Clear
6:35 AM 50.0 °F 44.6 °F 82% 30.26 in 10.0 mi Calm Calm - N/A   Scattered Clouds
6:55 AM 50.0 °F 46.4 °F 87% 30.27 in 10.0 mi Calm Calm - N/A   Mostly Cloudy
7:15 AM 50.0 °F 46.4 °F 87% 30.27 in 10.0 mi Calm Calm - N/A Rain Light Rain
7:35 AM 51.8 °F 46.4 °F 82% 30.27 in 7.0 mi Calm Calm - N/A Rain Light Rain
7:55 AM 51.8 °F 46.4 °F 82% 30.27 in 10.0 mi Calm Calm - N/A   Mostly Cloudy
8:15 AM 51.8 °F 48.2 °F 88% 30.27 in 10.0 mi Calm Calm - N/A Rain Light Rain
8:35 AM 51.8 °F 48.2 °F 88% 30.27 in 7.0 mi Calm Calm - N/A Rain Light Rain
8:55 AM 51.8 °F 48.2 °F 88% 30.26 in 5.0 mi East 3.5 mph - N/A Rain Light Rain
9:15 AM 51.8 °F 50.0 °F 94% 30.26 in 7.0 mi Calm Calm - N/A Rain Light Rain
9:35 AM 53.6 °F 50.0 °F 88% 30.25 in 10.0 mi ESE 3.5 mph - N/A   Mostly Cloudy
9:55 AM 53.6 °F 50.0 °F 88% 30.24 in 10.0 mi ENE 4.6 mph - N/A   Overcast
10:15 AM 55.4 °F 51.8 °F 88% 30.24 in 10.0 mi Calm Calm - N/A   Mostly Cloudy
10:35 AM 55.4 °F 51.8 °F 88% 30.24 in 10.0 mi Calm Calm - N/A   Mostly Cloudy
10:55 AM 57.2 °F 51.8 °F 82% 30.25 in 10.0 mi Calm Calm - N/A   Mostly Cloudy
11:15 AM 57.2 °F 51.8 °F 82% 30.25 in 10.0 mi Calm Calm - N/A   Scattered Clouds
11:35 AM 59.0 °F 51.8 °F 77% 30.25 in 10.0 mi East 3.5 mph - N/A   Scattered Clouds
11:55 AM 59.0 °F 51.8 °F 77% 30.25 in 10.0 mi ENE 3.5 mph - N/A   Scattered Clouds
12:15 PM 60.8 °F 51.8 °F 72% 30.24 in 10.0 mi ENE 5.8 mph - N/A   Clear
12:35 PM 62.6 °F 51.8 °F 68% 30.24 in 10.0 mi ENE 4.6 mph - N/A   Clear
12:55 PM 64.4 °F 50.0 °F 59% 30.22 in 10.0 mi East 5.8 mph - N/A   Clear
1:15 PM 68.0 °F 51.8 °F 56% 30.21 in 10.0 mi ENE 5.8 mph - N/A   Clear
1:35 PM 69.8 °F 50.0 °F 49% 30.20 in 10.0 mi ENE 6.9 mph - N/A   Clear
1:55 PM 71.6 °F 48.2 °F 43% 30.19 in 10.0 mi East 9.2 mph - N/A   Clear
2:15 PM 71.6 °F 50.0 °F 46% 30.18 in 10.0 mi ENE 9.2 mph - N/A   Clear
2:35 PM 73.4 °F 50.0 °F 44% 30.17 in 10.0 mi ENE 6.9 mph - N/A   Clear
2:55 PM 73.4 °F 50.0 °F 44% 30.16 in 10.0 mi East 9.2 mph - N/A   Clear
3:15 PM 73.4 °F 50.0 °F 44% 30.16 in 10.0 mi East 5.8 mph - N/A   Clear
3:35 PM 75.2 °F 50.0 °F 41% 30.15 in 10.0 mi ENE 8.1 mph - N/A   Clear
3:55 PM 75.2 °F 51.8 °F 44% 30.14 in 10.0 mi SE 6.9 mph - N/A   Clear
4:15 PM 77.0 °F 51.8 °F 41% 30.12 in 10.0 mi East 6.9 mph - N/A   Clear
4:35 PM 77.0 °F 51.8 °F 41% 30.12 in 10.0 mi East 6.9 mph - N/A   Clear
4:55 PM 77.0 °F 53.6 °F 44% 30.11 in 10.0 mi ESE 5.8 mph - N/A   Clear
5:15 PM 77.0 °F 53.6 °F 44% 30.11 in 10.0 mi East 6.9 mph - N/A   Clear
5:35 PM 77.0 °F 53.6 °F 44% 30.10 in 10.0 mi ENE 8.1 mph - N/A   Clear
5:55 PM 77.0 °F 53.6 °F 44% 30.09 in 10.0 mi East 8.1 mph - N/A   Clear
6:15 PM 77.0 °F 55.4 °F 47% 30.07 in 10.0 mi East 4.6 mph - N/A   Clear
6:35 PM 77.0 °F 55.4 °F 47% 30.08 in 10.0 mi East 9.2 mph - N/A   Clear
6:55 PM 75.2 °F 55.4 °F 50% 30.07 in 10.0 mi ENE 6.9 mph - N/A   Clear
7:15 PM 75.2 °F 55.4 °F 50% 30.07 in 10.0 mi East 6.9 mph - N/A   Clear
7:35 PM 73.4 °F 57.2 °F 57% 30.07 in 10.0 mi East 6.9 mph - N/A   Clear
7:55 PM 73.4 °F 57.2 °F 57% 30.07 in 10.0 mi East 4.6 mph - N/A   Clear
8:15 PM 71.6 °F 59.0 °F 64% 30.06 in 10.0 mi East 3.5 mph - N/A   Clear
8:35 PM 69.8 °F 59.0 °F 68% 30.06 in 10.0 mi Calm Calm - N/A   Clear
8:55 PM 68.0 °F 59.0 °F 73% 30.06 in 10.0 mi Calm Calm - N/A   Clear
9:15 PM 64.4 °F 59.0 °F 83% 30.06 in 10.0 mi Calm Calm - N/A   Clear
9:35 PM 64.4 °F 59.0 °F 83% 30.06 in 10.0 mi Calm Calm - N/A   Clear
9:55 PM 64.4 °F 59.0 °F 83% 30.06 in 10.0 mi Calm Calm - N/A   Clear
10:15 PM 64.4 °F 59.0 °F 83% 30.07 in 10.0 mi Calm Calm - N/A   Scattered Clouds
10:35 PM 64.4 °F 59.0 °F 83% 30.07 in 10.0 mi Calm Calm - N/A   Mostly Cloudy
10:55 PM 64.4 °F 59.0 °F 83% 30.07 in 10.0 mi Calm Calm - N/A   Scattered Clouds
11:15 PM 64.4 °F 59.0 °F 83% 30.07 in 10.0 mi Calm Calm - N/A   Mostly Cloudy
11:35 PM 64.4 °F 59.0 °F 83% 30.07 in 10.0 mi Calm Calm - N/A   Scattered Clouds
11:55 PM 62.6 °F 59.0 °F 88% 30.07 in 10.0 mi Calm Calm - N/A   Clear